19-07-2022, 00:00:02,    157,    0.0,   22.0,   0.00,   0.00, 1013.0,   37.3, -999.0
19-07-2022, 00:00:13,    157,    0.0,   22.1,   0.00,   0.00, 1013.0,   37.1, -999.0
19-07-2022, 00:00:22,    157,    0.0,   22.1,   0.00,   0.00, 1013.0,   37.4, -999.0
19-07-2022, 00:00:32,    157,    0.0,   22.1,   0.00,   0.00, 1013.1,   37.4, -999.0
19-07-2022, 00:00:42,    157,    0.0,   22.1,   0.00,   0.00, 1013.1,   37.8, -999.0
19-07-2022, 00:00:52,    157,    0.0,   22.1,   0.00,   0.00, 1013.1,   38.0, -999.0
19-07-2022, 00:01:02,    157,    0.0,   22.1,   0.00,   0.00, 1013.1,   37.9, -999.0
19-07-2022, 00:01:12,    157,    0.0,   22.1,   0.00,   0.00, 1013.0,   37.7, -999.0
19-07-2022, 00:01:22,    157,    0.0,   22.1,   0.00,   0.00, 1013.0,   37.6, -999.0
19-07-2022, 00:01:32,    157,    0.0,   22.1,   0.00,   0.00, 1013.0,   37.8, -999.0
19-07-2022, 00:01:42,    157,    0.0,   22.0,   0.00,   0.00, 1013.0,   37.7, -999.0
19-07-2022, 00:01:52,    157,    0.0,   22.0,   0.00,   0.00, 1013.1,   37.6, -999.0
19-07-2022, 00:02:02,    157,    0.0,   22.0,   0.00,   0.00, 1013.0,   37.8, -999.0
19-07-2022, 00:02:12,    157,    0.0,   21.9,   0.00,   0.00, 1013.0,   38.2, -999.0
19-07-2022, 00:02:22,    157,    0.0,   22.0,   0.00,   0.00, 1013.0,   38.0, -999.0
19-07-2022, 00:02:31,    157,    0.0,   21.9,   0.00,   0.00, 1013.0,   38.2, -999.0
19-07-2022, 00:02:42,    157,    0.0,   22.0,   0.00,   0.00, 1013.0,   38.3, -999.0
19-07-2022, 00:02:51,    157,    0.0,   22.1,   0.00,   0.00, 1013.1,   38.3, -999.0
19-07-2022, 00:03:01,    157,    0.0,   21.9,   0.00,   0.00, 1013.1,   38.3, -999.0
19-07-2022, 00:03:11,    157,    0.0,   22.0,   0.00,   0.00, 1013.1,   38.4, -999.0
19-07-2022, 00:03:21,    157,    0.0,   21.8,   0.00,   0.00, 1013.1,   38.3, -999.0
19-07-2022, 00:03:31,    157,    0.0,   22.0,   0.00,   0.00, 1013.1,   38.3, -999.0
19-07-2022, 00:03:41,    157,    0.0,   22.0,   0.00,   0.00, 1013.0,   38.4, -999.0
19-07-2022, 00:03:51,    157,    0.0,   22.0,   0.00,   0.00, 1013.0,   38.7, -999.0
19-07-2022, 00:04:01,    157,    0.0,   22.1,   0.00,   0.00, 1013.0,   38.5, -999.0
19-07-2022, 00:04:11,    157,    0.0,   21.9,   0.00,   0.00, 1013.0,   38.6, -999.0
19-07-2022, 00:04:21,    157,    0.0,   21.9,   0.00,   0.00, 1013.0,   38.6, -999.0
19-07-2022, 00:04:31,    157,    0.0,   22.0,   0.00,   0.00, 1013.0,   38.2, -999.0
19-07-2022, 00:04:41,    157,    0.0,   22.0,   0.00,   0.00, 1013.0,   38.2, -999.0
19-07-2022, 00:04:51,    157,    0.0,   22.0,   0.00,   0.00, 1013.0,   38.2, -999.0
19-07-2022, 00:05:00,    157,    0.0,   22.1,   0.00,   0.00, 1013.0,   38.2, -999.0
19-07-2022, 00:05:11,    157,    0.0,   22.0,   0.00,   0.00, 1013.0,   37.9, -999.0
19-07-2022, 00:05:21,    157,    0.0,   21.9,   0.00,   0.00, 1013.0,   37.8, -999.0
19-07-2022, 00:05:30,    157,    0.0,   22.0,   0.00,   0.00, 1013.0,   37.6, -999.0
19-07-2022, 00:05:40,    157,    0.0,   21.9,   0.00,   0.00, 1013.0,   37.7, -999.0
19-07-2022, 00:05:50,    157,    0.0,   21.9,   0.00,   0.00, 1013.0,   37.6, -999.0
19-07-2022, 00:06:00,    157,    0.0,   21.8,   0.00,   0.00, 1013.0,   37.5, -999.0
19-07-2022, 00:06:10,    157,    0.0,   21.9,   0.00,   0.00, 1013.0,   37.9, -999.0
19-07-2022, 00:06:20,    157,    0.0,   21.9,   0.00,   0.00, 1013.0,   37.6, -999.0
19-07-2022, 00:06:30,    157,    0.0,   21.9,   0.00,   0.00, 1013.0,   37.6, -999.0
19-07-2022, 00:06:40,    157,    0.0,   22.0,   0.00,   0.00, 1013.0,   37.4, -999.0
19-07-2022, 00:06:50,    157,    0.0,   21.8,   0.00,   0.00, 1013.0,   37.4, -999.0
19-07-2022, 00:07:00,    157,    0.0,   21.9,   0.00,   0.00, 1013.0,   37.5, -999.0
19-07-2022, 00:07:10,    157,    0.0,   21.9,   0.00,   0.00, 1013.0,   37.6, -999.0
19-07-2022, 00:07:20,    157,    0.0,   21.9,   0.00,   0.00, 1013.0,   37.6, -999.0
19-07-2022, 00:07:29,    157,    0.0,   21.9,   0.00,   0.00, 1013.0,   37.7, -999.0
19-07-2022, 00:07:40,    157,    0.0,   21.9,   0.00,   0.00, 1013.0,   38.2, -999.0
19-07-2022, 00:07:50,    157,    0.0,   22.0,   0.00,   0.00, 1013.0,   38.2, -999.0
19-07-2022, 00:07:59,    157,    0.0,   21.9,   0.00,   0.00, 1013.0,   38.2, -999.0
19-07-2022, 00:08:09,    157,    0.0,   21.9,   0.00,   0.00, 1013.0,   37.8, -999.0
19-07-2022, 00:08:20,    157,    0.0,   21.9,   0.00,   0.00, 1013.0,   37.9, -999.0
19-07-2022, 00:08:29,    157,    0.0,   21.8,   0.00,   0.00, 1013.0,   37.8, -999.0
19-07-2022, 00:08:39,    157,    0.0,   21.9,   0.00,   0.00, 1013.0,   38.1, -999.0
19-07-2022, 00:08:49,    157,    0.0,   21.9,   0.00,   0.00, 1013.0,   38.2, -999.0
19-07-2022, 00:08:59,    157,    0.0,   21.9,   0.00,   0.00, 1013.0,   38.3, -999.0
19-07-2022, 00:09:09,    157,    0.0,   21.9,   0.00,   0.00, 1013.0,   38.4, -999.0
19-07-2022, 00:09:19,    157,    0.0,   21.9,   0.00,   0.00, 1013.0,   38.2, -999.0
19-07-2022, 00:09:29,    157,    0.0,   21.9,   0.00,   0.00, 1013.0,   38.0, -999.0
19-07-2022, 00:09:39,    157,    0.0,   21.9,   0.00,   0.00, 1013.0,   37.7, -999.0
19-07-2022, 00:09:49,    157,    0.0,   21.8,   0.00,   0.00, 1013.0,   37.6, -999.0
19-07-2022, 00:09:59,    157,    0.0,   21.8,   0.00,   0.00, 1013.0,   37.5, -999.0
19-07-2022, 00:10:09,    157,    0.0,   21.8,   0.00,   0.00, 1013.0,   37.8, -999.0
19-07-2022, 00:10:19,    157,    0.0,   21.8,   0.00,   0.00, 1013.0,   37.6, -999.0
19-07-2022, 00:10:28,    157,    0.0,   21.8,   0.00,   0.00, 1013.0,   37.3, -999.0
19-07-2022, 00:10:38,    157,    0.0,   21.7,   0.00,   0.00, 1013.0,   37.3, -999.0
19-07-2022, 00:10:49,    157,    0.0,   21.8,   0.00,   0.00, 1013.0,   37.5, -999.0
19-07-2022, 00:10:58,    157,    0.0,   21.8,   0.00,   0.00, 1013.0,   37.6, -999.0
19-07-2022, 00:11:08,    157,    0.0,   21.7,   0.00,   0.00, 1013.0,   37.6, -999.0
19-07-2022, 00:11:18,    157,    0.0,   21.7,   0.00,   0.00, 1013.0,   37.5, -999.0
19-07-2022, 00:11:28,    157,    0.0,   21.6,   0.00,   0.00, 1013.0,   37.4, -999.0
19-07-2022, 00:11:38,    157,    0.0,   21.7,   0.00,   0.00, 1013.0,   37.2, -999.0
19-07-2022, 00:11:48,    162,    0.0,   21.6,   0.00,   0.00, 1013.0,   37.2, -999.0
19-07-2022, 00:11:58,    157,    0.0,   21.6,   0.00,   0.00, 1013.0,   37.2, -999.0
19-07-2022, 00:12:08,    157,    0.0,   21.6,   0.00,   0.00, 1013.0,   37.1, -999.0
19-07-2022, 00:12:18,    157,    0.0,   21.5,   0.00,   0.00, 1013.0,   37.2, -999.0
19-07-2022, 00:12:28,    157,    0.0,   21.5,   0.00,   0.00, 1013.0,   37.0, -999.0
19-07-2022, 00:12:38,    157,    0.0,   21.5,   0.00,   0.00, 1013.0,   37.1, -999.0
19-07-2022, 00:12:48,    157,    0.0,   21.5,   0.00,   0.00, 1013.0,   36.9, -999.0
19-07-2022, 00:12:58,    157,    0.0,   21.5,   0.00,   0.00, 1013.0,   36.8, -999.0
19-07-2022, 00:13:07,    158,    0.0,   21.5,   0.00,   0.00, 1013.0,   36.9, -999.0
19-07-2022, 00:13:18,    157,    0.0,   21.5,   0.00,   0.00, 1013.0,   36.8, -999.0
19-07-2022, 00:13:27,    157,    0.0,   21.5,   0.00,   0.00, 1013.0,   36.7, -999.0
19-07-2022, 00:13:37,    155,    0.0,   21.4,   0.00,   0.00, 1013.0,   36.7, -999.0
19-07-2022, 00:13:48,    157,    0.0,   21.4,   0.00,   0.00, 1013.0,   37.0, -999.0
19-07-2022, 00:13:57,    157,    0.0,   21.5,   0.00,   0.00, 1013.0,   37.1, -999.0
19-07-2022, 00:14:07,    157,    0.0,   21.4,   0.00,   0.00, 1013.0,   37.1, -999.0
19-07-2022, 00:14:17,    157,    0.0,   21.5,   0.00,   0.00, 1013.0,   37.2, -999.0
19-07-2022, 00:14:27,    157,    0.0,   21.5,   0.00,   0.00, 1012.9,   37.3, -999.0
19-07-2022, 00:14:37,    157,    0.0,   21.5,   0.00,   0.00, 1013.0,   38.2, -999.0
19-07-2022, 00:14:47,    157,    0.0,   21.5,   0.00,   0.00, 1013.0,   38.6, -999.0
19-07-2022, 00:14:57,    157,    0.0,   21.5,   0.00,   0.00, 1013.0,   38.6, -999.0
19-07-2022, 00:15:07,    157,    0.0,   21.4,   0.00,   0.00, 1013.0,   38.6, -999.0
19-07-2022, 00:15:17,    157,    0.0,   21.4,   0.00,   0.00, 1013.0,   38.5, -999.0
19-07-2022, 00:15:27,    157,    0.0,   21.4,   0.00,   0.00, 1012.9,   38.8, -999.0
19-07-2022, 00:15:37,    157,    0.0,   21.4,   0.00,   0.00, 1013.0,   38.8, -999.0
19-07-2022, 00:15:47,    157,    0.0,   21.3,   0.00,   0.00, 1013.0,   38.8, -999.0
19-07-2022, 00:15:56,    157,    0.0,   21.3,   0.00,   0.00, 1013.0,   38.5, -999.0
19-07-2022, 00:16:06,    157,    0.0,   21.4,   0.00,   0.00, 1013.0,   38.4, -999.0
19-07-2022, 00:16:17,    157,    0.0,   21.2,   0.00,   0.00, 1013.0,   38.8, -999.0
19-07-2022, 00:16:26,    157,    0.0,   21.3,   0.00,   0.00, 1013.0,   39.1, -999.0
19-07-2022, 00:16:36,    157,    0.0,   21.2,   0.00,   0.00, 1013.0,   39.2, -999.0
19-07-2022, 00:16:46,    157,    0.0,   21.2,   0.00,   0.00, 1012.9,   39.1, -999.0
19-07-2022, 00:16:56,    157,    0.0,   21.2,   0.00,   0.00, 1013.0,   38.8, -999.0
19-07-2022, 00:17:06,    160,    0.0,   21.2,   0.00,   0.00, 1013.0,   38.8, -999.0
19-07-2022, 00:17:16,    157,    0.0,   21.2,   0.00,   0.00, 1013.0,   38.6, -999.0
19-07-2022, 00:17:26,    157,    0.0,   21.2,   0.00,   0.00, 1013.0,   38.3, -999.0
19-07-2022, 00:17:36,    157,    0.0,   21.2,   0.00,   0.00, 1013.0,   38.2, -999.0
19-07-2022, 00:17:46,    157,    0.0,   21.2,   0.00,   0.00, 1013.0,   38.0, -999.0
19-07-2022, 00:17:56,    156,    0.0,   21.2,   0.00,   0.00, 1013.0,   38.2, -999.0
19-07-2022, 00:18:06,    157,    0.0,   21.2,   0.00,   0.00, 1013.0,   38.1, -999.0
19-07-2022, 00:18:16,    157,    0.0,   21.2,   0.00,   0.00, 1013.0,   38.2, -999.0
19-07-2022, 00:18:26,    157,    0.0,   21.2,   0.00,   0.00, 1012.9,   38.7, -999.0
19-07-2022, 00:18:35,    157,    0.0,   21.2,   0.00,   0.00, 1012.9,   38.8, -999.0
19-07-2022, 00:18:46,    157,    0.0,   21.2,   0.00,   0.00, 1012.9,   38.8, -999.0
19-07-2022, 00:18:55,    157,    0.0,   21.1,   0.00,   0.00, 1013.0,   38.8, -999.0
19-07-2022, 00:19:05,    157,    0.0,   21.1,   0.00,   0.00, 1012.9,   38.8, -999.0
19-07-2022, 00:19:15,    157,    0.0,   21.2,   0.00,   0.00, 1013.0,   38.9, -999.0
19-07-2022, 00:19:25,    157,    0.0,   21.2,   0.00,   0.00, 1013.0,   39.0, -999.0
19-07-2022, 00:19:35,    157,    0.0,   21.1,   0.00,   0.00, 1013.0,   38.9, -999.0
19-07-2022, 00:19:45,    157,    0.0,   21.0,   0.00,   0.00, 1013.0,   38.5, -999.0
19-07-2022, 00:19:55,    158,    0.0,   21.1,   0.00,   0.00, 1013.0,   38.7, -999.0
19-07-2022, 00:20:05,    157,    0.0,   21.1,   0.00,   0.00, 1013.0,   38.5, -999.0
19-07-2022, 00:20:15,    157,    0.0,   21.1,   0.00,   0.00, 1012.9,   38.5, -999.0
19-07-2022, 00:20:25,    157,    0.0,   21.1,   0.00,   0.00, 1013.0,   38.9, -999.0
19-07-2022, 00:20:35,    157,    0.0,   21.1,   0.00,   0.00, 1013.0,   39.0, -999.0
19-07-2022, 00:20:45,    157,    0.0,   21.0,   0.00,   0.00, 1013.0,   39.3, -999.0
19-07-2022, 00:20:55,    157,    0.0,   21.1,   0.00,   0.00, 1013.0,   39.4, -999.0
19-07-2022, 00:21:04,    157,    0.0,   21.0,   0.00,   0.00, 1013.0,   39.6, -999.0
19-07-2022, 00:21:15,    157,    0.0,   21.0,   0.00,   0.00, 1012.9,   39.2, -999.0
19-07-2022, 00:21:25,    157,    0.0,   21.0,   0.00,   0.00, 1013.0,   39.3, -999.0
19-07-2022, 00:21:34,    157,    0.0,   20.9,   0.00,   0.00, 1012.9,   39.2, -999.0
19-07-2022, 00:21:44,    157,    0.0,   20.9,   0.00,   0.00, 1012.9,   39.1, -999.0
19-07-2022, 00:21:54,    157,    0.0,   20.8,   0.00,   0.00, 1012.9,   39.2, -999.0
19-07-2022, 00:22:04,    157,    0.0,   20.8,   0.00,   0.00, 1012.9,   39.3, -999.0
19-07-2022, 00:22:14,    157,    0.0,   20.9,   0.00,   0.00, 1012.9,   39.6, -999.0
19-07-2022, 00:22:24,    157,    0.0,   20.8,   0.00,   0.00, 1012.9,   39.7, -999.0
19-07-2022, 00:22:34,    157,    0.0,   20.8,   0.00,   0.00, 1012.9,   39.8, -999.0
19-07-2022, 00:22:44,    157,    0.0,   20.8,   0.00,   0.00, 1013.0,   39.9, -999.0
19-07-2022, 00:22:54,    157,    0.0,   20.8,   0.00,   0.00, 1012.9,   39.9, -999.0
19-07-2022, 00:23:04,    157,    0.0,   20.7,   0.00,   0.00, 1012.9,   39.8, -999.0
19-07-2022, 00:23:14,    157,    0.0,   20.8,   0.00,   0.00, 1013.0,   40.1, -999.0
19-07-2022, 00:23:24,    157,    0.0,   20.6,   0.00,   0.00, 1012.9,   40.0, -999.0
19-07-2022, 00:23:34,    158,    0.0,   20.7,   0.00,   0.00, 1012.9,   40.2, -999.0
19-07-2022, 00:23:44,    157,    0.0,   20.6,   0.00,   0.00, 1012.9,   40.0, -999.0
19-07-2022, 00:23:54,    157,    0.0,   20.6,   0.00,   0.00, 1012.9,   40.0, -999.0
19-07-2022, 00:24:03,    157,    0.0,   20.6,   0.00,   0.00, 1012.9,   40.3, -999.0
19-07-2022, 00:24:13,    153,    0.0,   20.7,   0.00,   0.00, 1012.9,   40.3, -999.0
19-07-2022, 00:24:24,    157,    0.0,   20.6,   0.00,   0.00, 1012.9,   40.3, -999.0
19-07-2022, 00:24:33,    157,    0.0,   20.6,   0.00,   0.00, 1012.9,   40.5, -999.0
19-07-2022, 00:24:43,    157,    0.0,   20.6,   0.00,   0.00, 1012.9,   40.5, -999.0
19-07-2022, 00:24:53,    157,    0.0,   20.6,   0.00,   0.00, 1012.9,   40.5, -999.0
19-07-2022, 00:25:03,    157,    0.0,   20.6,   0.00,   0.00, 1012.9,   40.6, -999.0
19-07-2022, 00:25:13,    157,    0.0,   20.6,   0.00,   0.00, 1012.9,   40.7, -999.0
19-07-2022, 00:25:23,    157,    0.0,   20.5,   0.00,   0.00, 1012.9,   40.7, -999.0
19-07-2022, 00:25:33,    157,    0.0,   20.5,   0.00,   0.00, 1012.9,   40.6, -999.0
19-07-2022, 00:25:43,    157,    0.0,   20.5,   0.00,   0.00, 1012.9,   40.8, -999.0
19-07-2022, 00:25:53,    157,    0.0,   20.4,   0.00,   0.00, 1012.9,   41.0, -999.0
19-07-2022, 00:26:03,    157,    0.0,   20.4,   0.00,   0.00, 1012.9,   41.1, -999.0
19-07-2022, 00:26:13,    157,    0.0,   20.5,   0.00,   0.00, 1012.9,   41.1, -999.0
19-07-2022, 00:26:23,    157,    0.0,   20.4,   0.00,   0.00, 1012.9,   41.1, -999.0
19-07-2022, 00:26:32,    157,    0.0,   20.4,   0.00,   0.00, 1012.9,   41.1, -999.0
19-07-2022, 00:26:42,    157,    0.0,   20.4,   0.00,   0.00, 1012.9,   41.1, -999.0
19-07-2022, 00:26:53,    157,    0.0,   20.4,   0.00,   0.00, 1012.9,   41.2, -999.0
19-07-2022, 00:27:02,    157,    0.0,   20.4,   0.00,   0.00, 1012.9,   41.2, -999.0
19-07-2022, 00:27:12,    157,    0.0,   20.4,   0.00,   0.00, 1012.9,   41.3, -999.0
19-07-2022, 00:27:22,    157,    0.0,   20.4,   0.00,   0.00, 1012.9,   41.2, -999.0
19-07-2022, 00:27:32,    157,    0.0,   20.4,   0.00,   0.00, 1012.9,   41.3, -999.0
19-07-2022, 00:27:42,    157,    0.0,   20.4,   0.00,   0.00, 1012.9,   41.6, -999.0
19-07-2022, 00:27:52,    157,    0.0,   20.4,   0.00,   0.00, 1012.9,   41.5, -999.0
19-07-2022, 00:28:02,    157,    0.0,   20.4,   0.00,   0.00, 1012.9,   41.5, -999.0
19-07-2022, 00:28:12,    157,    0.0,   20.4,   0.00,   0.00, 1012.8,   41.7, -999.0
19-07-2022, 00:28:22,    157,    0.0,   20.3,   0.00,   0.00, 1012.8,   41.6, -999.0
19-07-2022, 00:28:32,    157,    0.0,   20.4,   0.00,   0.00, 1012.9,   41.7, -999.0
19-07-2022, 00:28:42,    157,    0.0,   20.4,   0.00,   0.00, 1012.9,   41.7, -999.0
19-07-2022, 00:28:52,    157,    0.0,   20.3,   0.00,   0.00, 1012.9,   41.8, -999.0
19-07-2022, 00:29:02,    157,    0.0,   20.3,   0.00,   0.00, 1012.9,   41.9, -999.0
19-07-2022, 00:29:11,    157,    0.0,   20.2,   0.00,   0.00, 1012.8,   42.0, -999.0
19-07-2022, 00:29:22,    157,    0.0,   20.2,   0.00,   0.00, 1012.9,   42.0, -999.0
19-07-2022, 00:29:31,    157,    0.0,   20.2,   0.00,   0.00, 1012.9,   42.3, -999.0
19-07-2022, 00:29:41,    157,    0.0,   20.3,   0.00,   0.00, 1012.9,   42.5, -999.0
19-07-2022, 00:29:52,    157,    0.0,   20.2,   0.00,   0.00, 1012.9,   42.0, -999.0
19-07-2022, 00:30:01,    157,    0.0,   20.2,   0.00,   0.00, 1012.9,   41.6, -999.0
19-07-2022, 00:30:11,    157,    0.0,   20.3,   0.00,   0.00, 1012.8,   41.4, -999.0
19-07-2022, 00:30:21,    157,    0.0,   20.3,   0.00,   0.00, 1012.9,   41.1, -999.0
19-07-2022, 00:30:31,    157,    0.0,   20.4,   0.00,   0.00, 1012.8,   41.7, -999.0
19-07-2022, 00:30:41,    157,    0.0,   20.4,   0.00,   0.00, 1012.9,   41.6, -999.0
19-07-2022, 00:30:51,    157,    0.0,   20.5,   0.00,   0.00, 1012.8,   41.5, -999.0
19-07-2022, 00:31:01,    158,    0.0,   20.5,   0.00,   0.00, 1012.8,   41.3, -999.0
19-07-2022, 00:31:11,    157,    0.0,   20.5,   0.00,   0.00, 1012.8,   41.6, -999.0
19-07-2022, 00:31:21,    157,    0.0,   20.5,   0.00,   0.00, 1012.8,   42.0, -999.0
19-07-2022, 00:31:31,    157,    0.0,   20.5,   0.00,   0.00, 1012.8,   42.2, -999.0
19-07-2022, 00:31:40,    157,    0.0,   20.5,   0.00,   0.00, 1012.8,   42.0, -999.0
19-07-2022, 00:31:51,    157,    0.0,   20.4,   0.00,   0.00, 1012.8,   42.5, -999.0
19-07-2022, 00:32:00,    157,    0.0,   20.5,   0.00,   0.00, 1012.8,   42.7, -999.0
19-07-2022, 00:32:10,    157,    0.0,   20.5,   0.00,   0.00, 1012.8,   42.8, -999.0
19-07-2022, 00:32:21,    157,    0.0,   20.5,   0.00,   0.00, 1012.8,   42.7, -999.0
19-07-2022, 00:32:30,    157,    0.0,   20.4,   0.00,   0.00, 1012.8,   42.6, -999.0
19-07-2022, 00:32:40,    157,    0.0,   20.4,   0.00,   0.00, 1012.8,   42.4, -999.0
19-07-2022, 00:32:50,    157,    0.0,   20.4,   0.00,   0.00, 1012.8,   42.1, -999.0
19-07-2022, 00:33:00,    156,    0.0,   20.4,   0.00,   0.00, 1012.8,   41.8, -999.0
19-07-2022, 00:33:10,    156,    0.0,   20.4,   0.00,   0.00, 1012.8,   41.6, -999.0
19-07-2022, 00:33:20,    157,    0.0,   20.4,   0.00,   0.00, 1012.8,   41.6, -999.0
19-07-2022, 00:33:30,    157,    0.0,   20.4,   0.00,   0.00, 1012.8,   42.0, -999.0
19-07-2022, 00:33:40,    157,    0.0,   20.4,   0.00,   0.00, 1012.8,   42.3, -999.0
19-07-2022, 00:33:50,    157,    0.0,   20.4,   0.00,   0.00, 1012.8,   42.1, -999.0
19-07-2022, 00:34:00,    157,    0.0,   20.4,   0.00,   0.00, 1012.8,   42.1, -999.0
19-07-2022, 00:34:10,    157,    0.0,   20.4,   0.00,   0.00, 1012.8,   42.1, -999.0
19-07-2022, 00:34:20,    157,    0.0,   20.4,   0.00,   0.00, 1012.8,   42.1, -999.0
19-07-2022, 00:34:30,    157,    0.0,   20.3,   0.00,   0.00, 1012.8,   42.2, -999.0
19-07-2022, 00:34:39,    157,    0.0,   20.3,   0.00,   0.00, 1012.8,   42.2, -999.0
19-07-2022, 00:34:50,    157,    0.0,   20.3,   0.00,   0.00, 1012.8,   42.3, -999.0
19-07-2022, 00:34:59,    157,    0.0,   20.3,   0.00,   0.00, 1012.8,   42.2, -999.0
19-07-2022, 00:35:09,    157,    0.0,   20.2,   0.00,   0.00, 1012.8,   42.1, -999.0
19-07-2022, 00:35:19,    157,    0.0,   20.1,   0.00,   0.00, 1012.8,   42.2, -999.0
19-07-2022, 00:35:29,    157,    0.0,   20.3,   0.00,   0.00, 1012.8,   42.3, -999.0
19-07-2022, 00:35:39,    157,    0.0,   20.2,   0.00,   0.00, 1012.8,   42.2, -999.0
19-07-2022, 00:35:49,    157,    0.0,   20.2,   0.00,   0.00, 1012.8,   42.3, -999.0
19-07-2022, 00:35:59,    157,    0.0,   20.2,   0.00,   0.00, 1012.8,   42.5, -999.0
19-07-2022, 00:36:09,    157,    0.0,   20.2,   0.00,   0.00, 1012.8,   42.6, -999.0
19-07-2022, 00:36:19,    157,    0.0,   20.2,   0.00,   0.00, 1012.8,   42.6, -999.0
19-07-2022, 00:36:29,    157,    0.0,   20.2,   0.00,   0.00, 1012.8,   42.7, -999.0
19-07-2022, 00:36:39,    157,    0.0,   20.2,   0.00,   0.00, 1012.8,   42.7, -999.0
19-07-2022, 00:36:49,    157,    0.0,   20.2,   0.00,   0.00, 1012.8,   42.6, -999.0
19-07-2022, 00:36:59,    157,    0.0,   20.2,   0.00,   0.00, 1012.8,   42.5, -999.0
19-07-2022, 00:37:08,    156,    0.0,   20.2,   0.00,   0.00, 1012.8,   42.5, -999.0
19-07-2022, 00:37:19,    157,    0.0,   20.3,   0.00,   0.00, 1012.8,   42.5, -999.0
19-07-2022, 00:37:29,    157,    0.0,   20.3,   0.00,   0.00, 1012.8,   42.5, -999.0
19-07-2022, 00:37:38,    157,    0.0,   20.3,   0.00,   0.00, 1012.8,   42.4, -999.0
19-07-2022, 00:37:48,    157,    0.0,   20.3,   0.00,   0.00, 1012.8,   41.9, -999.0
19-07-2022, 00:37:58,    157,    0.0,   20.3,   0.00,   0.00, 1012.8,   42.1, -999.0
19-07-2022, 00:38:08,    157,    0.0,   20.3,   0.00,   0.00, 1012.8,   42.2, -999.0
19-07-2022, 00:38:18,    157,    0.0,   20.3,   0.00,   0.00, 1012.8,   42.2, -999.0
19-07-2022, 00:38:28,    157,    0.0,   20.4,   0.00,   0.00, 1012.8,   42.2, -999.0
19-07-2022, 00:38:38,    157,    0.0,   20.4,   0.00,   0.00, 1012.8,   42.3, -999.0
19-07-2022, 00:38:48,    157,    0.0,   20.3,   0.00,   0.00, 1012.8,   42.3, -999.0
19-07-2022, 00:38:58,    157,    0.0,   20.4,   0.00,   0.00, 1012.8,   42.2, -999.0
19-07-2022, 00:39:08,    157,    0.0,   20.3,   0.00,   0.00, 1012.8,   41.8, -999.0
19-07-2022, 00:39:18,    157,    0.0,   20.4,   0.00,   0.00, 1012.8,   41.8, -999.0
19-07-2022, 00:39:28,    157,    0.0,   20.4,   0.00,   0.00, 1012.8,   41.8, -999.0
19-07-2022, 00:39:37,    157,    0.0,   20.4,   0.00,   0.00, 1012.8,   41.9, -999.0
19-07-2022, 00:39:48,    157,    0.0,   20.5,   0.00,   0.00, 1012.8,   41.8, -999.0
19-07-2022, 00:39:58,    157,    0.0,   20.4,   0.00,   0.00, 1012.8,   41.7, -999.0
19-07-2022, 00:40:07,    157,    0.0,   20.4,   0.00,   0.00, 1012.8,   41.9, -999.0
19-07-2022, 00:40:17,    157,    0.0,   20.4,   0.00,   0.00, 1012.8,   41.3, -999.0
19-07-2022, 00:40:28,    157,    0.0,   20.4,   0.00,   0.00, 1012.8,   41.2, -999.0
19-07-2022, 00:40:37,    157,    0.0,   20.5,   0.00,   0.00, 1012.8,   41.4, -999.0
19-07-2022, 00:40:47,    157,    0.0,   20.5,   0.00,   0.00, 1012.7,   41.6, -999.0
19-07-2022, 00:40:57,    157,    0.0,   20.6,   0.00,   0.00, 1012.8,   41.6, -999.0
19-07-2022, 00:41:07,    157,    0.0,   20.4,   0.00,   0.00, 1012.8,   41.3, -999.0
19-07-2022, 00:41:17,    157,    0.0,   20.4,   0.00,   0.00, 1012.8,   41.6, -999.0
19-07-2022, 00:41:27,    157,    0.0,   20.4,   0.00,   0.00, 1012.8,   41.7, -999.0
19-07-2022, 00:41:37,    157,    0.0,   20.4,   0.00,   0.00, 1012.8,   41.7, -999.0
19-07-2022, 00:41:47,    157,    0.0,   20.5,   0.00,   0.00, 1012.8,   41.5, -999.0
19-07-2022, 00:41:57,    157,    0.0,   20.4,   0.00,   0.00, 1012.8,   41.4, -999.0
19-07-2022, 00:42:07,    157,    0.0,   20.4,   0.00,   0.00, 1012.8,   41.5, -999.0
19-07-2022, 00:42:17,    157,    0.0,   20.4,   0.00,   0.00, 1012.8,   41.7, -999.0
19-07-2022, 00:42:27,    157,    0.0,   20.5,   0.00,   0.00, 1012.8,   41.3, -999.0
19-07-2022, 00:42:36,    157,    0.0,   20.6,   0.00,   0.00, 1012.8,   40.8, -999.0
19-07-2022, 00:42:47,    158,    0.0,   20.6,   0.00,   0.00, 1012.8,   40.9, -999.0
19-07-2022, 00:42:57,    157,    0.0,   20.6,   0.00,   0.00, 1012.8,   40.8, -999.0
19-07-2022, 00:43:06,    157,    0.0,   20.6,   0.00,   0.00, 1012.8,   41.1, -999.0
19-07-2022, 00:43:16,    157,    0.0,   20.6,   0.00,   0.00, 1012.8,   40.6, -999.0
19-07-2022, 00:43:26,    157,    0.0,   20.6,   0.00,   0.00, 1012.8,   41.4, -999.0
19-07-2022, 00:43:36,    157,    0.0,   20.6,   0.00,   0.00, 1012.8,   41.9, -999.0
19-07-2022, 00:43:46,    157,    0.0,   20.6,   0.00,   0.00, 1012.8,   41.7, -999.0
19-07-2022, 00:43:56,    157,    0.0,   20.5,   0.00,   0.00, 1012.8,   41.1, -999.0
19-07-2022, 00:44:06,    157,    0.0,   20.6,   0.00,   0.00, 1012.8,   41.4, -999.0
19-07-2022, 00:44:16,    157,    0.0,   20.6,   0.00,   0.00, 1012.8,   41.6, -999.0
19-07-2022, 00:44:26,    157,    0.0,   20.6,   0.00,   0.00, 1012.8,   41.2, -999.0
19-07-2022, 00:44:36,    157,    0.0,   20.6,   0.00,   0.00, 1012.8,   41.5, -999.0
19-07-2022, 00:44:46,    157,    0.0,   20.5,   0.00,   0.00, 1012.8,   41.2, -999.0
19-07-2022, 00:44:56,    157,    0.0,   20.5,   0.00,   0.00, 1012.8,   41.3, -999.0
19-07-2022, 00:45:06,    157,    0.0,   20.6,   0.00,   0.00, 1012.8,   41.3, -999.0
19-07-2022, 00:45:16,    157,    0.0,   20.7,   0.00,   0.00, 1012.8,   41.2, -999.0
19-07-2022, 00:45:26,    157,    0.0,   20.6,   0.00,   0.00, 1012.8,   41.4, -999.0
19-07-2022, 00:45:35,    157,    0.0,   20.6,   0.00,   0.00, 1012.8,   41.6, -999.0
19-07-2022, 00:45:45,    157,    0.0,   20.7,   0.00,   0.00, 1012.8,   41.0, -999.0
19-07-2022, 00:45:56,    157,    0.0,   20.7,   0.00,   0.00, 1012.8,   40.9, -999.0
19-07-2022, 00:46:05,    157,    0.0,   20.7,   0.00,   0.00, 1012.8,   40.9, -999.0
19-07-2022, 00:46:15,    157,    0.0,   20.7,   0.00,   0.00, 1012.8,   40.7, -999.0
19-07-2022, 00:46:25,    158,    0.0,   20.8,   0.00,   0.00, 1012.8,   40.5, -999.0
19-07-2022, 00:46:35,    157,    0.0,   20.8,   0.00,   0.00, 1012.8,   40.6, -999.0